sat.trackr.live / text

‹ back to catalog

SES-6

NORAD 39172 · 2013-026A

PAYLOAD ACTIVE UNKNOWN

§ Identity

Operator
Country
SES
Launch date
2013-06-03
Launch site
TYMSC
Launch vehicle
Mass (kg)
RCS (m²)
79.62

Purposes: comms

External: N2YO · Heavens-Above · Gunter

§ Orbital elements

Epoch: 2026-09-20T01:19:55.714944Z

Period
1,436.10 min
Inclination
0.0429°
Eccentricity
0.0002447
Mean motion
1.00271582 rev/d
Perigee alt
35,776.3 km
Apogee alt
35,797.0 km
Semi-major
42,164.8 km
B*
0.0000e+0
RAAN
308.6624°
Arg perigee
232.7646°
Mean anomaly
157.0281°
Rev number
4,867

§ Raw data

SES-61 39172U 13026A   26263.05550596 -.00000265  00000+0  00000+0 0  99902 39172   0.0429 308.6624 0002447 232.7646 157.0281  1.00271582 48670

JSON: /api/v1/satellites/39172 · /tle

For live sub-satellite position, see the globe view (requires WebGL).

§ Visibility from observer

Set your observer location to see the next 7 days of passes ≥ 10°. The values pass through the URL so the page stays shareable.

No JS? Fill the form by hand. The geolocation button needs JavaScript.